Stations météo

réclame
Mon MeteoGroup
Harsfjarden, Suède (2489): Température de l'air & dewpoint: 09.11.2018 22:00:00 - 15.11.2018 22:00:00 (CET)Harsfjarden, Suède (2489): Vitesse du vent & gusts: 09.11.2018 22:00:00 - 15.11.2018 22:00:00 (CET)Harsfjarden, Suède (2489): Direction du vent: 09.11.2018 22:00:00 - 15.11.2018 22:00:00 (CET)Harsfjarden, Suède (2489): reduced air pressure: 09.11.2018 22:00:00 - 15.11.2018 22:00:00 (CET)Harsfjarden, Suède (2489): visibility: 09.11.2018 22:00:00 - 15.11.2018 22:00:00 (CET)Harsfjarden, Suède (2489): Quantités de précipitations: 09.11.2018 22:00:00 - 15.11.2018 22:00:00 (CET)
Date & Time tt [°C] td [°C] ff [km/h] ff [knt] fx [km/h] fx [knt] dd ppp [hPa] vv [km] rr [mm]
15.11.2018 22:00:00 - - - - - - - - - -
15.11.2018 21:00:00 8,4 8,3 7 4 11 6 WSW 1030,8 28 0,0
15.11.2018 20:00:00 8,2 8,2 7 4 18 10 SW 1030,3 21 0,0
15.11.2018 19:00:00 8,0 8,0 11 6 18 10 SSW 1029,9 17 0,0
15.11.2018 18:00:00 8,0 8,0 11 6 18 10 SW 1029,6 12 0,0
15.11.2018 17:00:00 8,0 8,0 14 8 22 12 SSW 1029,4 11 0,0
15.11.2018 16:00:00 7,9 7,9 14 8 25 14 SSW 1029,4 12 0,0
15.11.2018 15:00:00 7,9 7,8 14 8 25 14 SSW 1029,2 2,8 0,1
15.11.2018 14:00:00 8,3 7,5 14 8 22 12 SSW 1028,8 35 0,0
15.11.2018 13:00:00 8,6 7,8 11 6 25 14 SW 1028,5 35 0,0
15.11.2018 12:00:00 8,5 7,7 18 10 25 14 S 1028,2 30 0,0
15.11.2018 11:00:00 8,1 7,7 14 8 22 12 SSW 1028,2 29 0,0
15.11.2018 10:00:00 7,4 7,4 11 6 18 10 SSW 1028,0 26 0,0
15.11.2018 09:00:00 6,7 6,7 11 6 14 8 SW 1027,5 18 0,0
15.11.2018 08:00:00 6,0 6,0 7 4 14 8 SW 1027,4 17 0,0
15.11.2018 07:00:00 - - - - - - - - - -
15.11.2018 06:00:00 3,4 3,4 7 4 11 6 W 1027,0 14 0,0
15.11.2018 05:00:00 2,2 2,2 0 0 4 2 N 1026,7 1,4 0,0
15.11.2018 04:00:00 2,7 2,7 4 2 4 2 W 1026,8 0,4 0,0
15.11.2018 03:00:00 3,5 3,5 0 0 7 4 N 1026,3 0,8 0,0
15.11.2018 02:00:00 3,6 3,6 4 2 7 4 WSW 1026,0 14 0,0
15.11.2018 01:00:00 4,2 4,2 0 0 7 4 N 1026,2 7 0,0
15.11.2018 00:00:00 5,7 5,7 4 2 7 4 WSW 1025,8 45 0,0
14.11.2018 23:00:00 4,7 4,7 4 2 4 2 W 1025,7 45 0,0
14.11.2018 22:00:00 5,0 4,9 0 0 14 8 N 1025,2 35 0,0
14.11.2018 21:00:00 6,4 6,3 4 2 7 4 WSW 1025,0 45 0,0
14.11.2018 20:00:00 6,6 6,2 0 0 4 2 N 1024,5 45 0,0
14.11.2018 19:00:00 7,3 6,2 0 0 7 4 N 1024,2 50 0,0
14.11.2018 18:00:00 7,4 6,2 4 2 11 6 SW 1024,0 45 0,0
14.11.2018 17:00:00 7,6 6,4 4 2 11 6 WSW 1023,9 45 0,0
14.11.2018 16:00:00 7,7 6,2 0 0 14 8 N 1023,3 50 0,0
14.11.2018 15:00:00 7,8 6,4 4 2 14 8 WSW 1022,9 50 0,0
14.11.2018 14:00:00 7,8 6,6 7 4 22 12 W 1022,8 50 0,0
14.11.2018 13:00:00 - - - - - - - - - -
14.11.2018 12:00:00 8,3 7,5 7 4 14 8 WNW 1021,5 50 0,0
14.11.2018 11:00:00 7,9 7,6 4 2 22 12 WNW 1021,0 40 0,0
14.11.2018 10:00:00 7,9 7,9 11 6 18 10 WNW 1020,2 23 0,0
14.11.2018 09:00:00 7,6 7,6 4 2 11 6 W 1019,4 12 0,0
14.11.2018 08:00:00 7,3 7,3 4 2 14 8 WNW 1018,8 11 0,0
14.11.2018 07:00:00 7,1 7,1 7 4 14 8 WNW 1018,2 11 0,0
14.11.2018 06:00:00 6,7 6,7 7 4 14 8 W 1017,6 11 0,0
14.11.2018 05:00:00 6,3 6,3 4 2 11 6 WSW 1017,1 9 0,0
14.11.2018 04:00:00 6,0 6,0 4 2 11 6 WSW 1016,7 0,6 0,0
14.11.2018 03:00:00 5,5 5,5 4 2 4 2 W 1016,3 5 0,0
14.11.2018 02:00:00 5,6 5,6 0 0 4 2 N 1016,0 11 0,0
14.11.2018 01:00:00 6,0 6,0 0 0 7 4 N 1015,7 5 0,0
14.11.2018 00:00:00 6,4 6,4 4 2 7 4 W 1015,6 40 0,0
13.11.2018 23:00:00 6,0 6,0 4 2 4 2 SSW 1015,5 18 0,0
13.11.2018 22:00:00 5,8 5,8 0 0 7 4 N 1015,3 8 0,0
13.11.2018 21:00:00 6,7 6,7 4 2 7 4 WSW 1015,2 24 0,0
13.11.2018 20:00:00 6,1 6,1 0 0 4 2 N 1015,2 8 0,0
13.11.2018 19:00:00 6,1 6,1 0 0 7 4 N 1015,4 7 0,0
13.11.2018 18:00:00 6,4 6,4 4 2 14 8 WSW 1015,4 8 0,0
13.11.2018 17:00:00 6,6 6,6 7 4 14 8 SW 1015,1 0,5 0,0
13.11.2018 16:00:00 6,5 6,5 4 2 7 4 SW 1015,0 8 0,0
13.11.2018 15:00:00 7,8 7,7 7 4 14 8 SSW 1014,5 19 0,0
13.11.2018 14:00:00 8,1 8,0 7 4 14 8 W 1014,5 23 0,0
13.11.2018 13:00:00 7,9 7,8 4 2 14 8 SW 1014,6 19 0,0
13.11.2018 12:00:00 7,7 7,6 7 4 18 10 W 1014,8 19 0,0
13.11.2018 11:00:00 7,9 7,8 11 6 14 8 W 1014,6 22 0,0
13.11.2018 10:00:00 7,9 7,9 4 2 14 8 WSW 1014,3 15 0,0
13.11.2018 09:00:00 7,6 7,6 7 4 11 6 NW 1013,6 13 0,0
13.11.2018 08:00:00 7,2 7,2 7 4 11 6 WNW 1013,2 11 0,0
13.11.2018 07:00:00 5,3 5,3 0 0 7 4 N 1012,7 12 0,0
13.11.2018 06:00:00 6,3 6,3 4 2 11 6 WNW 1012,3 40 0,0
13.11.2018 05:00:00 6,6 6,6 7 4 7 4 NNW 1012,2 40 0,0
13.11.2018 04:00:00 7,2 7,2 0 0 7 4 N 1011,9 15 0,3
13.11.2018 03:00:00 7,3 7,3 0 0 0 0 N 1012,6 9 0,6
13.11.2018 02:00:00 7,3 7,3 0 0 0 0 N 1012,9 5 0,5
13.11.2018 01:00:00 7,5 7,5 0 0 4 2 N 1013,5 2,7 0,8
13.11.2018 00:00:00 7,7 7,7 0 0 7 4 N 1014,1 5 0,9
12.11.2018 23:00:00 7,7 7,7 7 4 14 8 S 1015,0 3,5 1,0
12.11.2018 22:00:00 7,8 7,8 11 6 22 12 SSW 1015,6 6 0,0
12.11.2018 21:00:00 7,9 7,9 14 8 22 12 S 1015,8 11 0,0
12.11.2018 20:00:00 7,7 7,7 7 4 11 6 S 1015,7 5 0,0
12.11.2018 19:00:00 7,6 7,6 7 4 14 8 S 1015,9 5 0,0
12.11.2018 18:00:00 7,5 7,5 7 4 18 10 S 1016,4 0,5 0,0
12.11.2018 17:00:00 7,9 7,9 4 2 14 8 S 1016,5 3,3 0,0
12.11.2018 16:00:00 8,2 8,2 7 4 18 10 WSW 1016,2 9 0,0
12.11.2018 15:00:00 8,1 8,1 7 4 14 8 SSW 1016,1 1,4 0,0
12.11.2018 14:00:00 8,2 8,2 11 6 14 8 S 1015,9 0,6 0,0
12.11.2018 13:00:00 8,2 8,2 11 6 18 10 S 1015,9 2,0 0,0
12.11.2018 12:00:00 8,3 8,3 14 8 18 10 S 1015,9 3,3 0,0
12.11.2018 11:00:00 8,3 8,3 14 8 18 10 S 1015,8 4,8 0,0
12.11.2018 10:00:00 8,2 8,2 7 4 22 12 SSW 1015,7 8 0,0
12.11.2018 09:00:00 8,2 8,2 11 6 29 16 SSW 1015,6 4,0 0,0
12.11.2018 08:00:00 8,1 8,1 22 12 36 19 S 1015,2 1,9 0,0
12.11.2018 07:00:00 8,1 8,1 22 12 29 16 S 1015,0 1,4 0,0
12.11.2018 06:00:00 8,0 8,0 18 10 29 16 S 1014,7 0,7 0,1
12.11.2018 05:00:00 8,0 8,0 22 12 32 18 S 1014,6 2,4 0,2
12.11.2018 04:00:00 8,0 8,0 22 12 36 19 S 1014,2 4,9 0,0
12.11.2018 03:00:00 7,8 7,8 22 12 32 18 S 1014,8 6 1,0
12.11.2018 02:00:00 7,8 7,8 25 14 43 23 SSE 1014,9 6 0,1
12.11.2018 01:00:00 7,7 7,7 29 16 43 23 S 1014,9 5 0,0
12.11.2018 00:00:00 7,5 7,5 32 18 43 23 SSE 1015,0 7 0,1
11.11.2018 23:00:00 7,3 7,2 29 16 40 21 SSE 1015,2 5 0,1
11.11.2018 22:00:00 7,3 7,3 22 12 40 21 SSE 1015,6 4,4 0,3
11.11.2018 21:00:00 7,1 6,7 29 16 40 21 SE 1015,7 5 0,0
11.11.2018 20:00:00 7,1 6,7 32 18 43 23 SSE 1016,0 7 0,0
11.11.2018 19:00:00 7,1 7,1 29 16 36 19 SSE 1016,2 4,0 0,0
11.11.2018 18:00:00 7,2 7,2 25 14 36 19 SSE 1016,3 3,1 0,1
11.11.2018 17:00:00 7,4 7,4 25 14 32 18 SSE 1016,3 3,1 0,0
11.11.2018 16:00:00 7,4 7,4 22 12 32 18 SE 1016,5 3,8 0,0
11.11.2018 15:00:00 7,4 7,3 22 12 36 19 SSE 1016,6 4,3 0,0
11.11.2018 14:00:00 7,7 7,6 29 16 36 19 SSE 1016,4 6 0,0
11.11.2018 13:00:00 8,0 8,0 22 12 32 18 SSE 1016,4 2,3 0,0
11.11.2018 12:00:00 8,2 8,1 22 12 36 19 SSE 1016,5 4,1 0,0
11.11.2018 11:00:00 8,4 8,4 25 14 36 19 SSE 1016,5 3,7 0,0
11.11.2018 10:00:00 8,3 8,3 18 10 25 14 SSE 1016,6 3,7 0,0
11.11.2018 09:00:00 8,2 8,2 18 10 25 14 SSE 1016,6 2,9 0,0
11.11.2018 08:00:00 8,0 8,0 18 10 25 14 SE 1016,6 1,0 0,0
11.11.2018 07:00:00 8,0 8,0 18 10 25 14 SE 1016,6 1,3 0,0
11.11.2018 06:00:00 8,0 8,0 14 8 25 14 SE 1016,7 1,6 0,0
11.11.2018 05:00:00 8,2 8,2 18 10 25 14 SE 1016,6 5 0,0
11.11.2018 04:00:00 8,2 8,2 18 10 25 14 SE 1016,6 6 0,0
11.11.2018 03:00:00 8,3 8,2 18 10 29 16 SE 1017,0 8 0,0
11.11.2018 02:00:00 8,3 8,2 22 12 29 16 SE 1017,1 9 0,0
11.11.2018 01:00:00 8,2 8,1 22 12 32 18 SE 1016,9 7 0,0
11.11.2018 00:00:00 8,2 8,1 18 10 32 18 SE 1017,1 6 0,0
10.11.2018 23:00:00 8,1 8,0 14 8 25 14 SSE 1017,2 9 0,0
10.11.2018 22:00:00 7,9 7,8 18 10 25 14 SE 1017,0 9 0,0
10.11.2018 21:00:00 7,7 7,4 18 10 25 14 SE 1017,1 10 0,0
10.11.2018 20:00:00 7,6 7,3 18 10 25 14 SE 1016,9 12 0,0
10.11.2018 19:00:00 7,4 7,1 14 8 25 14 SE 1017,0 13 0,0
10.11.2018 18:00:00 7,1 7,0 18 10 29 16 SE 1016,8 11 0,0
10.11.2018 17:00:00 7,0 7,0 18 10 32 18 SE 1016,7 6 0,0
10.11.2018 16:00:00 6,9 6,9 18 10 25 14 SE 1016,2 5 0,0
10.11.2018 15:00:00 7,1 7,1 14 8 25 14 SE 1016,5 5 0,1
10.11.2018 14:00:00 7,4 7,4 14 8 18 10 SE 1016,6 5 0,0
10.11.2018 13:00:00 7,5 7,5 14 8 22 12 SE 1016,6 6 0,1
10.11.2018 12:00:00 7,6 7,6 14 8 18 10 SE 1016,6 20 0,0
10.11.2018 11:00:00 7,6 7,6 11 6 18 10 SE 1016,5 19 0,0
10.11.2018 10:00:00 7,6 7,6 11 6 18 10 SSE 1016,6 14 0,0
10.11.2018 09:00:00 7,4 7,4 11 6 18 10 SE 1016,5 6 0,0
10.11.2018 08:00:00 7,3 7,3 11 6 22 12 ESE 1016,5 4,7 0,0
10.11.2018 07:00:00 7,2 7,2 11 6 22 12 ESE 1016,4 4,3 0,0
10.11.2018 06:00:00 7,3 7,3 11 6 22 12 ESE 1016,5 2,4 0,0
10.11.2018 05:00:00 7,4 7,4 14 8 22 12 SE 1017,0 5 0,0
10.11.2018 04:00:00 7,3 7,3 7 4 18 10 ESE 1016,9 2,3 0,0
10.11.2018 03:00:00 7,3 7,3 4 2 14 8 E 1017,0 14 0,0
10.11.2018 02:00:00 7,4 7,4 4 2 14 8 ENE 1017,8 3,3 0,0
10.11.2018 01:00:00 7,5 - 11 6 18 10 SE 1018,3 5 0,1
10.11.2018 00:00:00 7,4 - 4 2 14 8 ENE 1018,3 13 0,9
09.11.2018 23:00:00 7,4 - 4 2 14 8 ENE 1018,8 6 3,0
09.11.2018 22:00:00 7,4 - 4 2 7 4 ENE 1019,3 4,2 1,0

tt = Température de l'air
td = dewpoint
ff = Vitesse du vent
fx = gusts
dd = Direction du vent
ppp = reduced air pressure
vv = visibility
rr = Quantités de précipitations

stations d'obs. à proximité